Wind_Speed
15 16 15 16 16 15 15 18 14 20 21 17 17 12 8 6 7 8 8 8 8 8 12 15 18 20 20 20 20 20 20 19 20 21 20 21 20 20 21 19 19 19 20 20
5 14 17 20 18 21 22 23 25 24 24 7 6 5 5 8 11 12 10 10 11 13 16 16 21 22 24 25 26 25 24 22 23 22 21 21 21 20 20 21 20 20 21 21
6 3 7 10 18 21 18 19 15 14 4 5 4 7 9 11 13 13 12 13 16 17 23 25 28 29 28 24 24 26 23 24 23 22 20 22 22 21 22 23 22 22 23 22
5 3 7 3 4 1 5 3 2 4 1 4 6 9 10 13 14 12 13 18 20 23 25 28 30 29 26 26 26 24 24 24 22 21 21 22 22 23 22 21 21 21 22 23
4 8 14 12 4 1 2 4 2 2 3 7 11 15 13 9 15 16 17 24 26 28 29 30 30 31 31 28 29 24 25 24 22 21 21 22 23 23 23 22 22 23 23 24
5 5 6 5 6 3 1 10 5 3 7 11 13 13 13 17 18 20 25 26 26 29 29 29 30 30 28 27 28 21 24 22 20 22 23 24 24 24 24 23 25 25 26 25
12 9 7 6 4 2 5 3 3 8 11 13 12 11 18 15 15 19 21 23 24 24 23 25 26 25 24 25 20 23 21 22 23 25 25 25 25 25 25 25 25 26 27 28
7 9 13 5 2 3 9 11 11 12 13 14 15 15 15 15 15 19 21 23 25 23 24 25 24 24 22 22 24 24 23 24 26 27 27 26 25 27 26 25 25 26 27 27
6 1 3 2 5 4 7 11 12 14 15 15 15 16 17 16 17 21 24 23 26 26 27 28 27 26 25 25 25 25 25 27 27 28 28 27 26 27 26 24 23 25 24 23
3 2 7 12 13 12 10 12 15 14 15 16 18 18 19 17 16 19 23 25 28 28 28 28 29 30 29 29 27 27 27 27 28 28 28 28 26 26 25 25 23 24 23 23
7 10 10 8 8 11 15 15 17 18 19 18 18 18 18 16 17 22 26 29 30 28 28 28 31 32 32 30 30 28 28 28 27 26 27 28 28 27 27 29 27 25 25 25
7 5 7 10 10 13 15 17 18 18 18 20 21 18 20 16 24 27 28 30 30 31 31 31 30 30 31 31 29 28 27 26 25 27 27 25 25 27 30 31 33 35 35 36
8 6 9 12 15 17 15 16 19 18 21 18 24 23 26 24 28 31 32 31 30 31 32 31 31 31 31 30 27 26 26 27 27 28 25 25 25 24 23 27 30 31 32 33
6 7 10 11 12 17 19 23 25 23 23 23 24 27 29 27 29 28 28 30 32 32 31 32 32 31 32 29 27 27 27 29 29 27 27 27 26 25 25 23 22 26 28 27
8 7 10 15 16 16 23 21 17 17 18 21 25 26 27 25 25 28 30 32 33 33 32 32 31 30 30 28 28 28 28 26 26 26 26 27 27 26 27 27 25 26 27 28
6 7 10 13 16 17 17 17 17 18 18 22 24 26 27 29 30 31 31 31 29 25 30 30 30 31 30 31 30 28 27 27 28 27 26 26 25 25 25 25 25 25 24 25
6 10 13 16 16 18 18 16 14 16 22 22 25 27 27 27 28 29 29 29 30 31 31 31 32 32 31 30 29 27 26 26 28 27 25 25 25 25 25 25 25 25 26 27
9 14 18 17 17 17 17 19 21 23 22 27 27 26 25 23 20 27 29 31 30 30 30 32 32 30 28 28 29 28 26 25 26 25 26 26 26 27 26 25 26 27 28 28
17 17 21 21 21 20 20 21 24 25 26 26 25 23 25 26 27 28 29 28 26 25 27 28 30 31 29 28 29 26 24 24 26 26 27 29 28 27 27 27 28 28 29 28
18 20 21 22 23 22 23 25 26 25 26 25 24 23 22 24 26 27 27 24 26 26 29 28 27 27 27 26 25 24 25 27 28 29 28 27 27 25 20 17 17 18 18 18
16 18 19 21 22 25 25 26 25 23 25 24 23 22 23 25 27 26 22 12 25 26 27 28 25 25 25 25 27 27 27 27 24 17 14 17 23 20 16 14 15 17 17 17
17 16 19 22 22 23 24 26 25 25 23 23 22 22 23 22 22 22 22 22 24 22 23 23 23 23 26 29 24 21 18 18 19 16 14 16 16 15 15 15 15 15 14 14
17 19 21 21 21 23 26 24 23 21 20 18 21 22 20 19 21 16 10 20 21 23 25 23 22 24 24 21 19 18 18 17 16 15 15 15 14 14 14 13 12 12 12 12
19 21 21 22 23 22 16 21 20 14 20 20 20 19 20 18 20 19 21 22 22 23 23 21 20 21 18 16 16 17 17 17 16 16 15 14 14 14 16 14 14 15 16 16
20 20 21 19 17 16 20 13 18 17 18 17 19 18 18 19 19 22 22 21 20 20 18 15 16 16 15 15 15 16 18 17 18 18 18 17 17 17 18 18 18 20 21 22
18 16 18 19 17 16 14 16 14 16 16 16 18 18 20 20 19 19 19 17 17 13 12 12 13 14 14 14 15 15 17 19 20 20 20 21 21 21 21 22 22 23 23 24
17 19 16 15 15 15 16 17 16 14 17 16 18 19 19 17 16 17 15 13 10 9 9 11 13 14 15 15 17 17 19 20 21 23 23 24 24 24 24 24 24 26 27 28
Wind_Direction
265 278 287 270 263 249 226 240 255 273 276 296 320 353 355 9 351 322 318 317 319 313 309 299 299 294 287 286 290 294 291 289 291 294 293 293 293 294 292 290 292 294 294 293
262 263 262 269 268 259 252 256 261 272 277 9 43 32 7 344 327 317 312 314 319 313 305 299 288 288 287 287 284 289 290 290 292 293 291 290 289 287 287 289 291 290 287 287
270 88 310 275 249 243 255 254 255 267 342 6 335 331 328 322 311 308 306 310 309 310 307 307 305 301 287 286 293 290 288 287 287 286 284 285 287 288 287 288 288 286 284 284
277 303 250 84 65 318 267 358 342 270 308 326 312 307 309 297 290 302 318 317 311 306 306 302 299 297 300 299 293 291 287 285 285 284 284 286 287 284 285 286 286 286 286 285
251 237 286 289 108 1 307 196 167 260 287 314 318 313 294 320 347 324 312 308 305 304 302 303 301 299 293 290 289 289 290 287 289 290 286 285 282 283 286 286 284 281 280 282
213 257 276 92 105 55 291 276 118 333 310 316 321 306 308 338 320 311 307 306 306 306 307 306 303 301 300 294 290 290 289 296 295 289 283 280 280 282 282 281 279 279 279 277
226 243 265 113 98 86 254 13 307 306 299 302 295 295 307 314 308 307 308 308 309 307 301 304 309 306 298 294 290 287 291 289 284 283 282 279 277 277 277 278 279 278 278 280
229 249 256 96 140 288 351 320 311 311 308 300 295 298 303 306 310 310 308 308 308 305 302 303 301 299 291 285 282 286 291 284 282 283 283 280 275 275 275 274 277 277 275 274
219 40 97 257 297 327 299 299 305 304 302 292 289 289 293 297 298 298 297 298 300 295 297 296 292 289 285 283 283 284 284 282 283 282 279 278 274 271 272 271 269 272 271 270
281 182 321 332 325 315 325 310 308 301 295 290 287 288 290 291 291 293 293 295 298 297 294 292 293 291 286 287 288 288 284 282 279 279 281 282 279 275 271 269 265 262 264 266
274 283 287 283 314 313 309 305 298 293 290 288 287 287 287 286 291 293 292 293 293 292 290 290 290 289 286 288 290 288 289 287 283 280 277 275 274 273 271 269 269 271 272 275
259 311 293 291 302 302 295 294 292 291 288 286 284 281 286 289 289 288 291 295 294 291 289 288 289 290 287 285 289 290 289 285 279 279 280 278 277 278 274 272 273 272 269 264
275 298 298 297 294 293 290 292 291 286 284 288 285 281 285 286 287 289 292 291 289 289 289 290 287 283 284 286 289 288 284 281 278 279 278 275 276 276 280 282 279 276 274 269
265 291 284 278 301 309 300 294 294 283 283 285 283 281 284 288 290 288 286 287 289 289 287 285 285 285 284 287 287 285 283 281 279 279 274 273 273 274 276 277 278 281 278 273
264 267 272 284 292 294 297 297 293 280 281 286 289 291 289 287 286 288 291 294 294 292 289 286 285 286 291 294 292 289 286 281 280 279 275 274 275 274 273 272 270 271 275 276
279 286 290 293 301 301 303 301 297 293 292 292 293 293 292 292 293 294 296 298 296 293 294 293 291 293 296 295 293 291 288 284 282 280 277 276 274 272 272 272 272 271 272 273
265 294 305 299 301 302 301 297 293 293 295 295 294 296 299 298 296 295 296 297 296 296 296 295 295 297 296 295 295 292 290 285 282 282 278 275 274 273 273 273 273 273 273 275
277 291 293 293 295 296 295 292 293 293 294 297 299 298 297 296 295 297 298 300 298 295 294 294 295 298 301 299 295 292 289 286 283 278 277 275 274 273 273 271 270 270 272 274
295 298 297 296 294 293 291 295 298 298 297 298 296 295 296 295 296 298 300 300 299 296 296 299 301 302 300 299 298 295 288 281 279 277 275 274 276 273 270 268 266 264 265 266
292 297 299 295 294 293 296 299 298 296 296 295 297 298 299 301 301 300 300 298 296 295 301 304 304 303 300 300 300 296 289 285 281 278 277 272 269 276 285 297 310 309 306 303
295 295 294 295 298 302 299 298 298 299 301 302 302 303 304 303 303 303 302 300 303 310 311 309 306 301 301 301 300 293 288 286 290 313 340 326 312 311 311 311 308 304 301 296
293 295 297 301 303 299 298 300 301 301 303 303 305 305 306 307 309 308 302 296 306 314 314 310 309 308 312 314 317 322 337 337 328 329 326 322 319 316 314 311 305 305 308 306
288 295 301 303 301 301 302 300 301 303 309 312 305 304 305 308 307 311 310 315 318 318 320 316 319 324 333 336 337 344 344 342 336 336 338 335 335 335 336 347 360 4 10 20
294 301 302 300 300 300 299 305 310 314 306 303 302 308 310 311 308 308 311 314 318 317 320 323 342 340 346 351 353 355 351 348 354 359 358 4 7 12 12 22 29 34 40 46
296 298 301 305 304 299 303 316 314 310 308 309 310 311 312 314 306 308 311 310 314 324 331 341 350 356 4 6 8 9 4 9 16 18 17 20 24 30 32 36 48 50 52 54
306 304 303 302 299 306 314 314 309 308 311 314 312 315 315 312 312 313 316 320 327 339 348 357 5 10 16 18 21 23 23 24 28 30 32 32 35 39 42 47 52 56 58 63
302 306 306 307 311 311 311 307 307 312 315 311 309 310 311 313 313 317 323 332 346 357 11 18 24 25 32 33 38 41 43 40 41 43 42 43 45 47 52 57 61 65 69 74
Height
805 803 805 806 808 807 818 811 812 790 789 787 788 801 806 810 813 813 811 810 809 808 807 806 805 803 800 799 798 796 794 793 790 788 785 784 782 780 779 774 770 768 765 763
829 810 808 807 806 802 798 797 792 791 790 799 807 810 814 816 817 814 811 811 811 810 808 806 805 802 800 796 793 790 787 786 785 782 779 777 776 773 771 768 764 762 760 758
809 814 819 817 798 794 793 791 793 799 803 813 814 818 819 820 817 815 812 813 810 808 806 803 799 794 789 786 786 785 782 781 778 775 773 772 769 767 764 762 759 756 754 752
816 823 815 792 797 797 796 804 802 807 812 818 819 818 818 817 812 811 811 812 810 806 802 800 796 789 785 783 781 779 778 775 773 771 768 767 764 761 758 756 754 751 749 746
822 802 783 783 797 801 802 799 813 814 816 817 817 816 811 807 811 813 813 812 808 804 799 795 790 786 782 778 776 774 773 770 766 765 763 761 758 755 752 750 747 745 743 739
812 817 799 795 807 809 809 802 817 822 820 819 819 816 807 813 814 811 810 807 803 799 795 791 786 782 777 773 770 768 767 764 762 760 757 754 751 748 745 743 740 738 734 731
812 808 790 802 808 809 814 814 818 819 820 820 820 818 812 813 811 809 806 803 800 795 791 787 783 778 773 769 766 764 761 759 756 752 750 746 743 741 738 735 733 729 726 722
807 805 804 808 810 811 813 815 816 817 818 818 816 814 812 809 806 804 800 797 794 790 786 781 777 774 768 764 761 758 755 752 748 745 741 738 736 732 730 728 725 721 717 713
797 795 807 810 814 815 816 817 817 816 815 814 812 809 806 803 801 798 795 791 787 783 777 773 769 766 761 757 754 751 748 744 740 736 732 730 727 724 721 719 717 713 709 705
806 798 802 804 809 811 814 816 816 814 811 809 806 802 800 797 794 791 787 783 779 774 770 764 761 757 752 748 745 742 738 734 731 728 724 721 719 716 712 709 706 703 700 697
806 805 806 809 810 812 812 812 811 808 805 802 799 796 793 789 787 784 780 775 771 766 761 757 753 748 744 741 738 734 730 727 723 720 716 712 709 706 703 699 698 694 692 690
802 802 807 809 810 811 810 808 805 802 799 797 795 790 788 785 781 776 771 767 762 758 754 749 745 741 736 732 730 727 723 718 715 711 707 704 701 695 693 690 688 685 683 682
802 804 806 808 808 807 805 803 800 797 793 790 787 785 782 777 772 768 764 759 755 750 746 742 737 732 728 725 722 719 714 710 706 703 700 696 692 689 683 680 677 675 672 670
804 807 807 805 802 802 800 797 794 792 789 785 781 777 773 767 763 760 756 751 746 741 737 732 727 723 719 716 713 709 706 702 698 695 691 688 684 681 677 673 669 664 662 661
804 804 804 803 801 798 795 792 788 785 782 777 773 770 765 759 754 750 747 744 739 733 728 723 718 713 712 709 705 701 697 693 690 686 683 679 676 672 669 665 661 656 652 650
802 803 801 798 794 790 787 784 781 776 773 768 765 761 758 754 748 744 740 737 732 725 721 716 711 707 705 701 697 692 688 685 682 677 673 670 667 663 659 655 651 647 643 641
801 798 797 794 791 785 782 779 776 772 766 762 758 755 752 748 743 739 734 730 725 720 715 710 704 701 697 694 689 685 680 676 672 668 665 661 657 653 650 646 642 638 635 632
798 796 793 790 785 780 775 773 769 765 761 757 753 750 746 742 737 731 726 722 717 712 708 703 698 694 690 686 682 677 673 669 664 660 656 651 647 644 640 636 633 629 625 623
793 789 787 784 780 776 771 766 762 759 755 751 747 743 739 735 730 725 720 715 710 704 699 695 691 687 682 678 674 670 665 660 656 651 646 641 636 633 629 625 621 617 614 612
786 784 781 777 774 770 764 760 757 752 748 744 740 736 731 728 723 718 713 709 704 699 693 689 685 681 676 671 667 663 658 652 647 640 635 630 625 621 618 615 612 610 609 606
780 778 774 770 766 763 759 755 750 745 741 737 733 729 725 721 717 712 707 701 696 693 689 684 680 675 670 666 660 654 648 642 637 632 630 628 624 620 616 613 610 608 604 602
774 772 768 765 761 756 752 748 744 740 735 731 728 725 721 716 712 707 703 698 693 689 685 680 675 670 665 660 654 649 645 641 637 633 630 627 623 619 615 612 608 605 601 598
769 766 762 759 755 750 746 742 738 734 731 728 725 720 717 713 709 703 697 694 690 686 682 677 672 667 662 657 653 649 645 641 637 633 630 626 623 619 615 611 608 605 602 599
763 759 756 753 749 745 739 736 733 731 728 724 720 717 713 708 704 701 696 692 688 683 679 674 670 666 661 657 654 650 646 642 639 635 631 628 624 621 618 614 612 609 606 604
757 754 751 747 743 739 735 732 729 726 723 719 716 712 709 706 703 697 693 689 685 681 677 674 670 666 663 660 656 653 649 646 642 638 635 632 629 626 623 620 618 615 613 611
752 749 746 742 739 735 733 730 727 723 720 716 712 709 706 702 699 695 691 688 684 681 678 675 672 669 666 663 660 657 654 650 647 644 641 638 635 632 630 627 625 623 621 620
747 744 741 738 736 733 730 727 723 720 718 714 710 707 703 700 697 693 690 687 684 682 679 677 674 672 669 667 664 661 659 656 654 651 648 645 642 640 638 636 634 632 631 630